Regional Weather Roundup
Issued by NWS Charleston, WV

Home | Current Version | Previous Version | Graphics & Text | Print | Product List | Glossary On
Versions: 1 2 3 4 5 6 7 8 9 10 11 12 13 14 15 16 17 18 19 20 21 22 23 24 25 26 27 28 29 30 31 32 33 34 35 36 37 38 39 40 41 42 43 44 45 46 47 48 49 50
000
ASUS41 KRLX 122210
RWRRLX
West Virginia Regional Weather Roundup
National Weather Service Charleston WV
600 PM EDT SAT JUL 12 2014

Note: "fair" indicates few or no clouds below 12,000 feet with no
significant weather and/or obstructions to visibility.

WVZ003-122300-
Northern Panhandle of West Virginia

CITY           SKY/WX    TMP DP  RH WIND       PRES   REMARKS
WHEELING       PTSUNNY   84  61  45 SW8       30.12F
$$

WVZ009-122300-
Northwest West Virginia

CITY           SKY/WX    TMP DP  RH WIND       PRES   REMARKS
PARKERSBURG    MOSUNNY   86  62  44 S7        30.13F
$$

WVZ006-122300-
Western West Virginia

CITY           SKY/WX    TMP DP  RH WIND       PRES   REMARKS
HUNTINGTON     PTSUNNY   87  58  37 S7        30.10F
$$

WVZ015-122300-
West Central West Virginia

CITY           SKY/WX    TMP DP  RH WIND       PRES   REMARKS
CHARLESTON     PTSUNNY   90  58  33 SW7       30.11F
$$

WVZ031-122300-
North Central West Virginia

CITY           SKY/WX    TMP DP  RH WIND       PRES   REMARKS
CLARKSBURG     MOSUNNY   85  58  39 W8        30.14F
MORGANTOWN     MOSUNNY   86  56  35 VRB3      30.15F
$$

WVZ035-042-045-122300-
South Central West Virginia

CITY           SKY/WX    TMP DP  RH WIND       PRES   REMARKS
BECKLEY        MOSUNNY   83  60  45 NW5       30.22F
BLUEFIELD      MOSUNNY   85  61  44 NW8       30.25F
LEWISBURG      PTSUNNY   85  59  41 SW3       30.21S
$$

WVZ047-122300-
Northern Mountains of West Virginia

CITY           SKY/WX    TMP DP  RH WIND       PRES   REMARKS
ELKINS         PTSUNNY   83  60  45 W8        30.20F
$$

WVZ052-122300-
Eastern Panhandle of West Virginia

CITY           SKY/WX    TMP DP  RH WIND       PRES   REMARKS
MARTINSBURG    PTSUNNY   85  67  54 S9        30.13S
PETERSBURG     MOSUNNY   85  58  39 SE6       30.12F
$$


USA.gov is the U.S. government's official web portal to all federal, state and local government web resources and services.